Regional Weather Roundup
Issued by NWS Burlington, VT

Home | Current Version | Previous Version | Text Only | Print | Product List | Glossary On
Versions: 1 2 3 4 5 6 7 8 9 10 11 12 13 14 15 16 17 18 19 20 21 22 23 24 25 26 27 28 29 30 31 32 33 34 35 36 37 38 39 40 41 42 43 44 45 46 47 48 49 50
000
ASUS41 KBTV 292230
RWRBTV
VERMONT REGIONAL WEATHER ROUNDUP
NATIONAL WEATHER SERVICE BURLINGTON VT
500 PM EST THU JAN 29 2015

NOTE: "FAIR" INDICATES FEW OR NO CLOUDS BELOW 12,000 FEET WITH NO
SIGNIFICANT WEATHER AND/OR OBSTRUCTIONS TO VISIBILITY.

* THESE REPORTS ARE NOT UNDER NWS QUALITY CONTROL AND/OR DO NOT
  REPORT WEATHER SUCH AS PRECIPITATION AND FOG.

VTZ001>019-292300-
_____VERMONT_____


CITY           SKY/WX    TMP DP  RH WIND       PRES   REMARKS
BURLINGTON     CLOUDY    30   2  30 S12       29.98F
MONTPELIER     CLOUDY    27   4  37 S9        30.03F
MORRISVILLE    CLOUDY    30   6  36 CALM      30.01F
ST. JOHNSBURY*   N/A     24   8  50 MISG      30.03S
LYNDONVILLE*   MOCLDY    25  -1  32 SE3       30.02F
MIDDLEBURY*    CLOUDY    26   4  38 S5        30.01R
RUTLAND*       CLOUDY    34   1  25 SE18      30.00R
SPRINGFIELD    MOCLDY    28   4  35 SE5       30.09S
HIGHGATE*      CLOUDY    32   4  30 S9        29.96F
NEWPORT*       CLOUDY    27   4  37 S5        29.99F
BENNINGTON     CLOUDY    34   0  23 SE6       30.02R
SUTTON*          N/A     21 N/A N/A MISG        N/A
GALLUP MILLS*    N/A     21 N/A N/A MISG        N/A
UNION VILLAGE*   N/A     25 N/A N/A MISG        N/A
MT. MANSFIELD*   N/A     18 N/A N/A CALM        N/A

_____LAKE CHAMPLAIN_____


CITY           SKY/WX    TMP DP  RH WIND       PRES   REMARKS
BURTON ISLAND*   N/A     30  16  55 SE12        N/A
COLCHESTER RF*   N/A     32  14  47 S21         N/A
DIAMOND ISL*     N/A     28  10  47 S13         N/A  WCI  18

$$

NYZ007-026>031-035-052-083-292300-
_____NORTHERN NEW YORK_____


CITY           SKY/WX    TMP DP  RH WIND       PRES   REMARKS
PLATTSBURGH    CLOUDY    27  13  55 SE16      29.96F WCI  15
SARANAC LAKE   LGT SNOW  28  19  69 S21G29    29.84F WCI  15
MASSENA        CLOUDY    22  18  85 E13       29.86F WCI  10
OGDENSBURG*    CLEAR     36  25  64 S8        29.78F
POTSDAM*       CLOUDY    37  28  70 S16G24    29.78F
STARK FALLS*     N/A     28 N/A N/A SE20        N/A  WCI  15
WATERTOWN        N/A    N/A N/A N/A MISG      29.79F
FT DRUM        CLOUDY    31  13  48 S15       29.78F
ALBANY         CLOUDY    30   5  34 S15G21    30.04F WCI  19
GLENS FALLS    CLOUDY    24   6  46 CALM      30.05F

$$
NHZ002-005-011-292300-
_____NEW HAMPSHIRE_____


CITY           SKY/WX    TMP DP  RH WIND       PRES   REMARKS
LEBANON        MOCLDY    27  10  49 S3        30.07F
KEENE          PTCLDY    27   9  46 CALM      30.11S
MT WASHINGTON  MOCLDY    12 -18  24 S46         N/A  WCI -13
PLYMOUTH       FAIR      29   8  41 CALM      30.11S
WHITEFIELD     PTCLDY    21  11  65 CALM      30.02F

$$

_____REGIONAL QUEBEC LOCATIONS_____


CITY           SKY/WX    TMP DP  RH WIND       PRES   REMARKS
MONTREAL       CLOUDY    19   7  58 NE15      29.96F WCI   5
QUEBEC CITY    MOCLDY    18   3  53 NE6       30.04F
SHERBROOKE     MOCLDY    27  12  54 SE7       29.99F

_____REGIONAL ONTARIO LOCATIONS_____


CITY           SKY/WX    TMP DP  RH WIND       PRES   REMARKS
OTTAWA         LGT SNOW  18  16  93 E12       29.83R WCI   5

______KEY______
VSB  - VISIBILITY IN MILES
WCI  - WIND CHILL INDEX
HX   - HEAT INDEX
$$



USA.gov is the U.S. government's official web portal to all federal, state and local government web resources and services.